This is the latest recevied weather packets stored in our database for station/object F4ETJ-1. If no packets are shown the sender has not sent any weather packets the latest 10 day(s).
| Time | Temp. | Humidity | Pressure | Rain* | Wind** | Luminosity | Snow |
|---|---|---|---|---|---|---|---|
| 1777832607 | 16.67° C | 82% | 1008.8 hPa | 0 mm | - | - | - |
| 1777832247 | 16.67° C | 82% | 1008.7 hPa | 0 mm | - | - | - |
| 1777831887 | 16.67° C | 81% | 1008.8 hPa | 0 mm | - | - | - |
| 1777831527 | 16.67° C | 80% | 1008.8 hPa | 0 mm | - | - | - |
| 1777831166 | 16.67° C | 79% | 1008.9 hPa | 0 mm | - | - | - |
| 1777830806 | 17.22° C | 78% | 1008.8 hPa | 0 mm | - | - | - |
| 1777830445 | 17.22° C | 78% | 1008.8 hPa | 0 mm | - | - | - |
| 1777830085 | 16.67° C | 78% | 1008.6 hPa | 0 mm | - | - | - |
| 1777829725 | 16.67° C | 78% | 1008.5 hPa | 0 mm | - | - | - |
| 1777829365 | 16.67° C | 78% | 1008.7 hPa | 0 mm | - | - | - |
| 1777829004 | 16.67° C | 77% | 1008.8 hPa | 0 mm | - | - | - |
| 1777828644 | 16.67° C | 78% | 1008.9 hPa | 0 mm | - | - | - |
| 1777828283 | 16.67° C | 77% | 1008.8 hPa | 0 mm | - | - | - |
| 1777827923 | 17.22° C | 78% | 1008.8 hPa | 0 mm | - | - | - |
| 1777827563 | 17.22° C | 76% | 1008.9 hPa | 0 mm | - | - | - |
| 1777827202 | 17.22° C | 76% | 1009 hPa | 0 mm | - | - | - |
| 1777826842 | 17.22° C | 76% | 1008.9 hPa | 0 mm | - | - | - |
| 1777826482 | 17.22° C | 75% | 1008.9 hPa | 0 mm | - | - | - |
| 1777826121 | 17.22° C | 74% | 1008.9 hPa | 0 mm | - | - | - |
| 1777825761 | 17.78° C | 72% | 1009 hPa | 0 mm | - | - | - |
| 1777825401 | 18.89° C | 70% | 1008.9 hPa | 0 mm | - | - | - |
| 1777825040 | 20° C | 68% | 1008.8 hPa | 0 mm | - | - | - |
| 1777824680 | 20.56° C | 68% | 1008.8 hPa | 0 mm | - | - | - |
| 1777824320 | 20.56° C | 68% | 1008.9 hPa | 0 mm | - | - | - |
| 1777823959 | 20° C | 68% | 1008.9 hPa | 0 mm | - | - | - |
* Rain latest hour (hover to see other rain measurements)
** Current wind speed in m/s (hover to see current wind gust speed)